星链-31857 (STARLINK-31857 )

导读

STARLINK-31857是美国太空探索技术公司SpaceX星链互联网卫星星座中的一员,于2024年5月23日发射入轨。星链项目旨在为全球提供高速低延迟宽带互联网服务,该卫星加入星座后,进一步扩容了星链网络的覆盖范围与服务容量,助力全球尤其是偏远地区的互联网接入服务覆盖。

Basic Information
目录编号:
59843
目录名称:
STARLINK-31857
国际标识:
2024-097J
轨道中心:
EARTH
卫星名称:
星链-31857
卫星全名:
星链-31857 (STARLINK-31857 )
卫星状态:
在轨 (已飞行835 天)
发射日期:
2024-05-23 UTC
国别 :
美国 (US)
星等 :
--
Orbit Information
数据来源 国际轨道数据 AOE轨道数据
星历时间 2026-09-05T07:55:42+0800
10小时前
查看轨道信息
2026-09-02T06:00:00+0800
3天前
查看轨道信息
半长轴 6861.208km 6861.2km
偏心率 0.0001365 0.0001771
轨道倾角 43.003° 42.995°
近地点辐角 262.585° 253.937°
升交点赤经 341.365° 358.773°
平近点角 97.484° 66.574°
近地点 482.134km 481.847km
远地点 484.008km 484.279km
周期 94.267分钟 94.267分钟
每日圈数 15.275728 15.275756
Detailed Information
固有亮度:
5
最大亮度:
1.5
卫星平台:
Starlink v2.0 mini
覆盖范围:
全球
运营商:
太空探索技术公司
运营商所在国:
美国
制造商(研发单位):
太空探索技术公司
制造商所在国:
美国
使用方式:
暂无
Satellite Introduction
星链(Starlink)计划是由太空探索技术公司(SpaceX)提出的一个巨型低轨卫星互联网星座项目,计划在2019年至2024年间在太空搭建由约1.2万颗卫星组成的“星链”网络,其中1584颗将部署在地球上空550千米处的近地轨道,并从2020年开始工作。该卫星仍在工作。
2D Orbit Map
3D Orbit Map
Orbit Altitude Analysis Chart
Orbit Inclination Analysis Chart
Orbit Comprehensive Analysis Chart
View Comprehensive Chart
Conjunction Data List
Event ID Objects TCA Miss Dist (km) Collision Risk Probability Collision Risk Index (CRI) Action
CDM_260906-163005-984306-311821
2026-09-06T
16:30:47+0000
1.017 km
极远距离
1.641227E-5 中风险 0.59
CDM_260906-145605-984306-311821
2026-09-06T
14:56:38+0000
1.026 km
极远距离
1.593468E-5 中风险 0.59
CDM_260907-041605-984306-311821
2026-09-07T
04:16:56+0000
1.077 km
极远距离
1.349052E-5 中风险 0.58
CDM_260907-055105-984306-311821
2026-09-07T
05:51:05+0000
1.843 km
极远距离
2.383766E-6 低风险 0.43
CDM_260906-014105-619105-984322
HAWK-7A (56191)
2026-09-06T
01:41:09+0000
2.564 km
极远距离
1.636519E-6 低风险 0.39
CDM_260906-075205-984306-431621
2026-09-06T
07:52:28+0000
2.465 km
极远距离
1.541264E-6 低风险 0.39
CDM_260906-132205-984306-311821
2026-09-06T
13:22:28+0000
2.972 km
极远距离
9.486296E-7 极低风险 0.35